DECAYED

CZ-7A DEB, 50324 (Decayed)

Orbit data source: Space-Track

CZ-7A DEB, 50324 was space debris in LEO originally from a launch on Thu, 23 Dec 2021 UTC launched from the Wenchang Satellite Launch Center (WSC). Debris objects in space refer to the collection of defunct objects orbiting the Earth. Examples of debris include non-operational satellites, rocket bodies, and fragments generated from explosions, collisions, or faulty payload assembly.

Not visible in the next 10 days
Identifier
50324, 2021-129D
Orbit
Decayed
Country
Flag of CNCN / PRC
Related business
Manufacturer
CAST
Mission
Decayed spacecraft
Bus & Motor
Unknown
Mass
Unknown
Launch date (UTC)
2021-12-23 (4 years ago)
Launch vehicle
Unknown
Launch site
Wenchang Satellite Launch Center (WSC)
Object type
Payload
Rocket body
Debris
Shape & HBR
Unknown shape, 2.0 m
Radar Cross Section
Large (>1 m²)

Expand to show TLE details & history
Last TLE update: 1 year ago

TLE from 1 year ago
0 CZ-7A DEB
1 50324U 21129D   25173.50167552  .33133481 -16886-4  10529-2 0  9997
2 50324  19.3399 233.7247 0428112  49.6225  81.7325 15.52270557 49686
Epoch: 2025-06-22T12:02Z
TLE epoch observation values (Epoch: 2025-06-22T12:02:24.764Z)
Latitude
13.30604°
Longitude
-79.87551°
Altitude
377.321 km
Speed
7.704 km/s
True Right ascension
00h 46m 36s
True Declination
13° 13' 30"
Sunlit
Object was in daylight at epoch
Visualization orbit readout
Latitude
Unknown
Longitude
Unknown
Altitude
Unknown
Speed
Unknown
Apparent Right ascension
Unknown
Apparent Declination
Unknown
Sunlit
N/A
Visualization observer readout
Local Sidereal Time
16:30:29
Azimuth
Unknown
Elevation
Unknown
Doppler factor
Unknown
Orbital elements
Apogee altitude
706.387 km
Perigee altitude
124.696 km
Semi-major axis
6,793.678 km
Eccentricity
0.04281
Inclination
19.3399°
RAAN
233.7247°
Arg. of periapsis
49.6225°
True anomaly
86.61902°
Mean anomaly
81.7325°
Eccentric anomaly
84.17273°
Mean motion
3.87602 °/min
Orbital period
92.88 mins
BSTAR
0.0010529
Loading maneuver chart data...
Computing Atmospheric mass density...
Loading historical data...
Loading historical data...
Loading historical data...
Loading historical data...
Loading historical data...
Loading historical data...
Loading historical data...
Other satellites on launch #129 in the year 2021 (2021-12-23 UTC)

Documentation

Showing up to 5 results
|